Weather History for Cherokee, IA

Change the Weather History Date:

Friday, April 26, 2013

  Actual Average Record
Temperature  
Mean Temperature 58 °F -  
Max Temperature 73 °F 67 °F 88 °F (1981)
Min Temperature 43 °F 40 °F 16 °F (1950)
Degree Days  
Heating Degree Days 7    
Growing Degree Days 8 (Base 50)    
Moisture  
Dew Point 32 °F    
Average Humidity 41    
Maximum Humidity 69    
Minimum Humidity 17    
Precipitation  
Precipitation 0.00 in - - ()
Sea Level Pressure  
Sea Level Pressure 30.06 in    
Wind  
Wind Speed 10 mph (SW)    
Max Wind Speed 18 mph    
Max Gust Speed 24 mph    
Visibility 10 miles    
Events      
Averages and records for this station are not official NWS values.
T = Trace of Precipitation, MM = Missing Value Source: NWS Daily Summary

Daily Weather History Graph

Daily Weather History Graph

Search for Another Location

Airport:

Trip Planner

Search our weather history database for the weather conditions in past years. The results will help you decide how hot, cold, wet, or windy it might be!

Date:

Astronomy

Apr. 26, 2013 Rise Set
Actual Time 6:23 AM CDT 8:17 PM CDT
Civil Twilight 5:52 AM CDT 8:47 PM CDT
Nautical Twilight 5:15 AM CDT 9:25 PM CDT
Astronomical Twilight 4:35 AM CDT 10:05 PM CDT
Moon 9:43 PM CDT (4/26) 6:50 AM CDT (4/26)
Length of Visible Light 14h 54m
Length of Day
13h 53m
Full, 99% of the Moon is Illuminated
Apr 26
Full
May 2
Last Quarter
May 9
New
May 17
First Quarter
May 24
Full

Hourly Weather History & Observations

Time (CDT) Temp. Windchill Dew Point Humidity Pressure Visibility Wind Dir Wind Speed Gust Speed Precip Events Conditions
12:15 AM 49.1 °F - 34.2 °F 56% 30.03 in 10.0 mi South 11.5 mph - N/A   Clear
12:35 AM 49.5 °F - 34.2 °F 56% 30.03 in 10.0 mi South 11.5 mph - N/A   Clear
12:55 AM 49.1 °F - 34.2 °F 56% 30.03 in 10.0 mi South 11.5 mph - N/A   Clear
1:15 AM 49.1 °F - 34.3 °F 57% 30.03 in 10.0 mi South 12.7 mph - N/A   Scattered Clouds
1:35 AM 50.0 °F - 34.5 °F 55% 30.02 in 10.0 mi South 12.7 mph - N/A   Mostly Cloudy
2:15 AM 49.6 °F - 34.5 °F 56% 30.00 in 10.0 mi South 18.4 mph 24.2 mph N/A   Scattered Clouds
2:35 AM 49.5 °F - 34.7 °F 57% 30.00 in 10.0 mi South 15.0 mph 21.9 mph N/A   Clear
2:55 AM 49.1 °F - 34.7 °F 58% 29.99 in 10.0 mi South 16.1 mph - N/A   Clear
3:15 AM 48.6 °F - 34.9 °F 59% 29.99 in 10.0 mi South 16.1 mph - N/A   Clear
3:35 AM 48.7 °F - 34.9 °F 59% 29.99 in 10.0 mi South 12.7 mph 18.4 mph N/A   Clear
3:55 AM 49.1 °F - 34.7 °F 58% 30.00 in 10.0 mi South 11.5 mph - N/A   Clear
4:15 AM 49.1 °F - 34.7 °F 58% 29.99 in 10.0 mi South 13.8 mph - N/A   Clear
4:35 AM 48.2 °F - 34.9 °F 60% 30.00 in 10.0 mi SSW 13.8 mph - N/A   Clear
4:55 AM 47.7 °F - 34.9 °F 61% 29.99 in 10.0 mi South 10.4 mph - N/A   Clear
5:15 AM 47.1 °F - 34.9 °F 62% 29.99 in 10.0 mi South 9.2 mph - N/A   Clear
5:35 AM 45.3 °F 41.1 °F 34.9 °F 67% 29.99 in 10.0 mi South 8.1 mph - N/A   Clear
5:55 AM 44.6 °F 40.2 °F 34.7 °F 68% 29.99 in 10.0 mi South 8.1 mph - N/A   Clear
6:15 AM 43.7 °F 39.7 °F 34.0 °F 69% 29.99 in 10.0 mi South 6.9 mph - N/A   Clear
6:35 AM 44.6 °F 40.7 °F 34.2 °F 67% 30.00 in 10.0 mi South 6.9 mph - N/A   Clear
6:55 AM 44.8 °F 41.0 °F 34.2 °F 66% 30.01 in 10.0 mi South 6.9 mph - N/A   Clear
7:15 AM 45.0 °F 42.6 °F 34.5 °F 67% 30.01 in 10.0 mi South 4.6 mph - N/A   Clear
7:35 AM 45.5 °F 41.8 °F 35.2 °F 67% 30.02 in 10.0 mi South 6.9 mph - N/A   Clear
7:55 AM 47.7 °F - 35.1 °F 62% 30.02 in 10.0 mi South 6.9 mph - N/A   Clear
8:15 AM 50.7 °F - 35.6 °F 56% 30.03 in 10.0 mi SSW 10.4 mph - N/A   Clear
8:35 AM 53.1 °F - 35.6 °F 52% 30.03 in 10.0 mi SSW 9.2 mph - N/A   Clear
8:55 AM 55.0 °F - 35.8 °F 48% 30.03 in 10.0 mi SSW 10.4 mph - N/A   Clear
9:15 AM 57.4 °F - 36.1 °F 45% 30.03 in 10.0 mi SSW 16.1 mph 21.9 mph N/A   Clear
9:35 AM 59.7 °F - 36.0 °F 41% 30.03 in 10.0 mi SW 12.7 mph - N/A   Clear
9:55 AM 60.1 °F - 34.9 °F 39% 30.04 in 10.0 mi SW 17.3 mph 20.7 mph N/A   Clear
10:15 AM 60.3 °F - 34.7 °F 38% 30.05 in 10.0 mi SW 16.1 mph 20.7 mph N/A   Clear
10:35 AM 60.4 °F - 34.5 °F 38% 30.06 in 10.0 mi SW 12.7 mph 20.7 mph N/A   Clear
10:55 AM 61.5 °F - 35.2 °F 37% 30.07 in 10.0 mi SW 16.1 mph 19.6 mph N/A   Clear
11:15 AM 62.6 °F - 33.6 °F 34% 30.08 in 10.0 mi WSW 10.4 mph 19.6 mph N/A   Clear
11:35 AM 64.2 °F - 34.0 °F 32% 30.08 in 10.0 mi WSW 10.4 mph 19.6 mph N/A   Clear
11:55 AM 64.2 °F - 33.3 °F 32% 30.08 in 10.0 mi WSW 9.2 mph - N/A   Clear
12:15 PM 65.3 °F - 32.4 °F 29% 30.09 in 10.0 mi West 6.9 mph - N/A   Clear
12:35 PM 66.6 °F - 33.8 °F 30% 30.09 in 10.0 mi SW 4.6 mph - N/A   Clear
12:55 PM 67.3 °F - 33.1 °F 28% 30.08 in 10.0 mi WSW 6.9 mph - N/A   Clear
1:15 PM 67.6 °F - 33.1 °F 28% 30.08 in 10.0 mi West 9.2 mph - N/A   Clear
1:35 PM 68.4 °F - 32.4 °F 26% 30.08 in 10.0 mi West 5.8 mph - N/A   Clear
1:55 PM 69.4 °F - 31.5 °F 24% 30.08 in 10.0 mi NE 5.8 mph - N/A   Clear
2:15 PM 70.7 °F - 31.1 °F 23% 30.08 in 10.0 mi North 8.1 mph - N/A   Clear
2:35 PM 70.2 °F - 31.8 °F 24% 30.08 in 10.0 mi North 5.8 mph - N/A   Clear
2:55 PM 71.6 °F - 30.4 °F 22% 30.07 in 10.0 mi WNW 6.9 mph - N/A   Clear
3:15 PM 71.8 °F - 29.3 °F 21% 30.07 in 10.0 mi NW 4.6 mph - N/A   Clear
3:35 PM 71.6 °F - 30.7 °F 22% 30.06 in 10.0 mi Calm Calm - N/A   Clear
3:55 PM 72.5 °F - 28.6 °F 20% 30.06 in 10.0 mi NNW 5.8 mph - N/A   Clear
4:15 PM 72.9 °F - 27.1 °F 18% 30.05 in 10.0 mi North 5.8 mph - N/A   Clear
4:35 PM 72.9 °F - 26.6 °F 18% 30.05 in 10.0 mi East 3.5 mph - N/A   Clear
4:55 PM 73.8 °F - 27.1 °F 18% 30.05 in 7.0 mi West 5.8 mph - N/A   Clear
5:15 PM 73.6 °F - 27.3 °F 18% 30.06 in 10.0 mi NE 4.6 mph - N/A   Clear
5:35 PM 73.0 °F - 26.1 °F 17% 30.06 in 10.0 mi Calm Calm - N/A   Clear
5:55 PM 73.4 °F - 27.7 °F 18% 30.06 in 10.0 mi NNW 8.1 mph - N/A   Clear
6:15 PM 72.7 °F - 29.1 °F 20% 30.07 in 10.0 mi North 12.7 mph - N/A   Clear
6:16 PM 73.4 °F - 28.4 °F 19% 30.07 in 10.0 mi North 9.2 mph - N/A   Clear
6:35 PM 72.3 °F - 28.0 °F 19% 30.07 in 10.0 mi NW 6.9 mph - N/A   Clear
6:55 PM 71.1 °F - 28.4 °F 20% 30.08 in 10.0 mi North 9.2 mph - N/A   Clear
7:15 PM 69.6 °F - 28.6 °F 22% 30.08 in 10.0 mi North 10.4 mph - N/A   Clear
7:35 PM 67.6 °F - 29.7 °F 24% 30.09 in 10.0 mi North 11.5 mph - N/A   Clear
7:55 PM 66.0 °F - 29.7 °F 26% 30.09 in 10.0 mi North 11.5 mph 17.3 mph N/A   Clear
8:15 PM 63.9 °F - 26.1 °F 24% 30.10 in 10.0 mi North 11.5 mph - N/A   Clear
8:35 PM 62.1 °F - 25.3 °F 25% 30.11 in 10.0 mi North 8.1 mph - N/A   Clear
8:55 PM 61.0 °F - 26.1 °F 26% 30.11 in 10.0 mi North 8.1 mph - N/A   Clear
9:15 PM 58.6 °F - 27.9 °F 31% 30.12 in 10.0 mi North 6.9 mph - N/A   Clear
9:35 PM 57.9 °F - 30.6 °F 35% 30.13 in 10.0 mi NNE 6.9 mph - N/A   Clear
9:55 PM 55.6 °F - 32.0 °F 41% 30.14 in 10.0 mi North 4.6 mph - N/A   Clear
10:15 PM 52.9 °F - 33.6 °F 48% 30.16 in 10.0 mi South 10.4 mph - N/A   Clear
10:35 PM 54.0 °F - 32.0 °F 43% 30.17 in 10.0 mi SSE 5.8 mph - N/A   Clear
10:55 PM 52.0 °F - 34.0 °F 50% 30.17 in 10.0 mi Calm Calm - N/A   Clear
11:15 PM 49.8 °F - 33.4 °F 53% 30.17 in 10.0 mi Calm Calm - N/A   Clear
11:35 PM 47.3 °F - 34.5 °F 61% 30.17 in 10.0 mi Calm Calm - N/A   Clear
11:55 PM 49.1 °F - 34.2 °F 56% 30.16 in 10.0 mi NNE 3.5 mph - N/A   Clear